FIN1LT EETN-EFHK

Flight info

Callsign FIN1LT
Flight time 0h 18m
Altitude 11000
Route INTOR
Aircraft A320/M-SDE3FGHIRWY/LB1

Departure

Time 2026-04-26 15:22
Airport Lennart Meri Tallinn Airport (EETN)

Arrival

Time 2026-04-26 15:40
Airport Helsinki Vantaa Airport (EFHK)
Time Latitude Longitude Altitude Speed Heading
2026-04-26 14:57 59.41587 24.80063 162 ft 0 kts
2026-04-26 15:10 59.41586 24.80063 162 ft 1 kts
2026-04-26 15:10 59.41571 24.80063 162 ft 4 kts
2026-04-26 15:10 59.41542 24.80069 162 ft 4 kts 328°
2026-04-26 15:10 59.41525 24.80106 162 ft 4 kts 301°
2026-04-26 15:11 59.41513 24.80132 162 ft 1 kts
2026-04-26 15:11 59.41491 24.80133 162 ft 2 kts
2026-04-26 15:11 59.41490 24.80133 162 ft 0 kts
2026-04-26 15:13 59.41498 24.80133 162 ft 3 kts
2026-04-26 15:13 59.41525 24.80157 162 ft 6 kts 54°
2026-04-26 15:13 59.41528 24.80248 162 ft 10 kts 90°
2026-04-26 15:14 59.41523 24.80488 162 ft 22 kts 102°
2026-04-26 15:14 59.41505 24.80801 162 ft 25 kts 90°
2026-04-26 15:14 59.41504 24.81157 162 ft 26 kts 90°
2026-04-26 15:14 59.41504 24.81524 162 ft 28 kts 90°
2026-04-26 15:15 59.41503 24.81910 162 ft 28 kts 91°
2026-04-26 15:15 59.41502 24.82294 162 ft 30 kts 90°
2026-04-26 15:15 59.41501 24.82721 162 ft 33 kts 90°
2026-04-26 15:15 59.41500 24.83105 162 ft 26 kts 90°
2026-04-26 15:16 59.41500 24.83446 162 ft 26 kts 90°
2026-04-26 15:16 59.41500 24.83810 162 ft 28 kts 90°
2026-04-26 15:16 59.41498 24.84197 162 ft 27 kts 90°
2026-04-26 15:16 59.41497 24.84583 162 ft 29 kts 90°
2026-04-26 15:17 59.41495 24.84957 162 ft 29 kts 90°
2026-04-26 15:17 59.41496 24.85214 162 ft 28 kts 90°
2026-04-26 15:17 59.41494 24.85714 162 ft 25 kts 90°
2026-04-26 15:17 59.41493 24.86072 162 ft 27 kts 90°
2026-04-26 15:18 59.41491 24.86430 162 ft 20 kts 91°
2026-04-26 15:18 59.41488 24.86656 162 ft 12 kts 99°
2026-04-26 15:18 59.41434 24.86708 162 ft 9 kts 178°
2026-04-26 15:18 59.41379 24.86710 162 ft 7 kts 180°
2026-04-26 15:19 59.41336 24.86707 163 ft 6 kts 190°
2026-04-26 15:19 59.41315 24.86646 161 ft 6 kts 259°
2026-04-26 15:19 59.41317 24.86556 160 ft 0 kts 271°
2026-04-26 15:19 59.41317 24.86554 160 ft 0 kts 271°
2026-04-26 15:21 59.41317 24.86544 160 ft 5 kts 271°
2026-04-26 15:21 59.41319 24.86101 160 ft 69 kts 271°
2026-04-26 15:21 59.41323 24.84734 162 ft 129 kts 270°
2026-04-26 15:21 59.41317 24.82746 510 ft 148 kts 276°
2026-04-26 15:22 59.41301 24.80739 1288 ft 146 kts 280°
2026-04-26 15:22 59.41550 24.78761 1711 ft 156 kts 315°
2026-04-26 15:22 59.42520 24.77687 2100 ft 174 kts 350°
2026-04-26 15:22 59.43805 24.77856 2592 ft 197 kts
2026-04-26 15:23 59.45222 24.78220 3152 ft 218 kts
2026-04-26 15:23 59.46755 24.78619 4044 ft 225 kts
2026-04-26 15:23 59.48320 24.79025 5060 ft 228 kts
2026-04-26 15:23 59.49906 24.79431 6067 ft 231 kts
2026-04-26 15:24 59.51506 24.79840 7007 ft 234 kts
2026-04-26 15:24 59.53128 24.80255 7921 ft 238 kts
2026-04-26 15:24 59.54782 24.80671 8831 ft 242 kts
2026-04-26 15:24 59.56468 24.81093 9733 ft 246 kts
2026-04-26 15:25 59.58159 24.81912 10490 ft 258 kts 17°
2026-04-26 15:25 59.59229 24.83004 10715 ft 265 kts 28°
2026-04-26 15:25 59.61354 24.86164 10832 ft 306 kts 32°
2026-04-26 15:25 59.63090 24.88782 10830 ft 319 kts 32°
2026-04-26 15:26 59.64862 24.91471 10850 ft 322 kts 33°
2026-04-26 15:26 59.66645 24.94185 10830 ft 325 kts 33°
2026-04-26 15:26 59.67833 24.95987 10827 ft 326 kts 33°
2026-04-26 15:26 59.69632 24.98710 10826 ft 326 kts 32°
2026-04-26 15:27 59.71437 25.01440 10826 ft 326 kts 32°
2026-04-26 15:27 59.73238 25.04167 10825 ft 326 kts 32°
2026-04-26 15:27 59.75037 25.06897 10822 ft 326 kts 32°
2026-04-26 15:27 59.76837 25.09632 10819 ft 326 kts 33°
2026-04-26 15:28 59.78633 25.12367 10719 ft 321 kts 32°
2026-04-26 15:28 59.80374 25.15023 10455 ft 310 kts 32°
2026-04-26 15:28 59.82064 25.17583 10211 ft 301 kts 31°
2026-04-26 15:28 59.83858 25.19604 9963 ft 291 kts 19°
2026-04-26 15:29 59.85691 25.21149 9727 ft 281 kts 19°
2026-04-26 15:29 59.87452 25.22646 9589 ft 269 kts 19°
2026-04-26 15:29 59.90786 25.25492 9306 ft 257 kts 19°
2026-04-26 15:30 59.94051 25.28314 8971 ft 253 kts 19°
2026-04-26 15:30 59.95658 25.29719 8566 ft 252 kts 19°
2026-04-26 15:30 59.97227 25.31096 8380 ft 239 kts 19°
2026-04-26 15:31 59.98666 25.32378 8144 ft 216 kts 19°
2026-04-26 15:31 60.01393 25.34776 7019 ft 212 kts 18°
2026-04-26 15:31 60.02733 25.35949 6471 ft 209 kts 18°
2026-04-26 15:32 60.04922 25.37867 5592 ft 205 kts 18°
2026-04-26 15:32 60.06706 25.38774 5043 ft 194 kts 353°
2026-04-26 15:32 60.07969 25.37995 5004 ft 189 kts 329°
2026-04-26 15:33 60.08897 25.36116 4922 ft 194 kts 309°
2026-04-26 15:33 60.09636 25.33845 4536 ft 196 kts 308°
2026-04-26 15:33 60.10386 25.31487 4023 ft 203 kts 308°
2026-04-26 15:33 60.11143 25.29086 3665 ft 203 kts 308°
2026-04-26 15:34 60.11886 25.26703 3444 ft 197 kts 308°
2026-04-26 15:34 60.12591 25.24430 3309 ft 187 kts 308°
2026-04-26 15:34 60.13271 25.22249 3093 ft 183 kts 308°
2026-04-26 15:34 60.13947 25.20099 3003 ft 182 kts 308°
2026-04-26 15:35 60.14611 25.17985 3005 ft 181 kts 308°
2026-04-26 15:35 60.15283 25.15842 3006 ft 181 kts 308°
2026-04-26 15:35 60.16073 25.13884 3004 ft 176 kts 325°
2026-04-26 15:35 60.17062 25.12730 3031 ft 160 kts 335°
2026-04-26 15:36 60.18045 25.11738 3022 ft 156 kts 335°
2026-04-26 15:36 60.19010 25.10761 3012 ft 155 kts 335°
2026-04-26 15:36 60.19980 25.09777 3007 ft 154 kts 335°
2026-04-26 15:36 60.20936 25.08805 3004 ft 153 kts 335°
2026-04-26 15:37 60.21836 25.07885 2999 ft 141 kts 335°
2026-04-26 15:37 60.22699 25.07004 2765 ft 137 kts 335°
2026-04-26 15:37 60.23524 25.06159 2494 ft 128 kts 335°
2026-04-26 15:37 60.24294 25.05372 2249 ft 122 kts 335°
2026-04-26 15:38 60.25043 25.04608 2000 ft 120 kts 335°
2026-04-26 15:38 60.25784 25.03853 1765 ft 119 kts 335°
2026-04-26 15:38 60.26522 25.03100 1528 ft 119 kts 336°
2026-04-26 15:38 60.27260 25.02349 1290 ft 119 kts 336°
2026-04-26 15:39 60.27992 25.01600 1046 ft 117 kts 336°
2026-04-26 15:39 60.28722 25.00854 808 ft 118 kts 335°
2026-04-26 15:39 60.29456 25.00120 585 ft 117 kts 333°
2026-04-26 15:39 60.29955 24.99615 428 ft 118 kts 332°
2026-04-26 15:40 60.30914 24.98619 197 ft 116 kts 332°
2026-04-26 15:40 60.31551 24.97958 153 ft 84 kts 333°
2026-04-26 15:40 60.31922 24.97583 153 ft 39 kts 333°
2026-04-26 15:40 60.32137 24.97364 155 ft 30 kts 333°
2026-04-26 15:41 60.32301 24.97195 158 ft 23 kts 333°
2026-04-26 15:41 60.32385 24.97030 164 ft 15 kts 272°
2026-04-26 15:41 60.32351 24.96891 165 ft 5 kts 232°
2026-04-26 15:41 60.32340 24.96863 165 ft 1 kts 232°
2026-04-26 15:42 60.32335 24.96851 165 ft 5 kts 231°
2026-04-26 15:42 60.32283 24.96740 166 ft 14 kts 212°
2026-04-26 15:42 60.32204 24.96784 166 ft 12 kts 150°
2026-04-26 15:42 60.32138 24.96859 166 ft 10 kts 150°
2026-04-26 15:43 60.32081 24.96926 166 ft 9 kts 148°
2026-04-26 15:43 60.32030 24.96985 166 ft 9 kts 153°
2026-04-26 15:43 60.31964 24.96994 166 ft 3 kts 242°
2026-04-26 15:44 60.31957 24.96965 166 ft 2 kts 241°
2026-04-26 15:44 60.31946 24.96926 166 ft 1 kts 242°
2026-04-26 15:44 60.31945 24.96922 166 ft 0 kts 242°